Flag for Ukraine Weather past 2 weeks in Odesa, Ukraine

Now
48 °F

Fog.


Feels Like: 45 °F
Forecast: 52 / 62 °F
Wind: 8 mph from Southeast

Location: Odesa Airport

Current Time: Apr 28, 2015 at 8:41:27 AM

Latest Report: Apr 28, 2015 at 8:00 AM


Visibility: 0 mi

Pressure: 29.98 "Hg

Humidity: 100%

Dew point: 48 °F

Location of OdesaLocation

Historic Weather in Odesa — Graph

°F

Odesa temperature yesterday

Maximum temperature yesterday: 61 °F (at 10:30 AM)
Minimum temperature yesterday: 45 °F (at 4:30 AM)
Average temperature yesterday: 52 °F

Past Weeks' High & Low Weather Summary

 TemperatureHumidityPressure
High72 °F (Apr 13, 3:30 PM)100% (Apr 22, 5:00 AM)30.18 "Hg (Apr 22, 5:00 AM)
Low30 °F (Apr 21, 5:30 AM)24% (Apr 14, 5:00 PM)29.62 "Hg (Apr 18, 4:30 AM)
Average50 °F69%29.96 "Hg
* Reported Apr 13 7:00 AM — Apr 28 7:30 AM, Odesa, Weather by CustomWeather, © 2015

Note: Actual official high and low records may vary slightly from our data, if they occured in-between our weather recording intervals... More about our weather records

Advertising

Odesa weather history for previous 24 hours

 ConditionsComfort  
Time TempWeatherWind HumidityBarometerVisibility
7:30 AM
Tue, Apr 28
48 °FFog.6 mph100%29.98 "Hg0 mi
7:00 AM48 °FFog.3 mph100%29.98 "Hg0 mi
6:30 AM48 °FFog.3 mph100%29.95 "Hg0 mi
6:00 AM46 °FFog.3 mph100%29.95 "Hg0 mi
5:30 AM46 °FFog.3 mph100%29.95 "Hg0 mi
5:04 AM46 °FFog.3 mph100%29.95 "Hg0 mi
5:00 AM46 °FFog.3 mph100%29.95 "Hg0 mi
4:30 AM46 °FFog.1 mph100%29.95 "Hg2 mi
4:00 AM48 °FFog.3 mph100%29.95 "Hg0 mi
3:30 AM46 °FFog.6 mph100%29.98 "Hg0 mi
3:00 AM43 °FFog.1 mph100%29.98 "Hg0 mi
2:30 AM43 °FClear.No wind100%29.98 "Hg0 mi
2:02 AM45 °FFog.3 mph100%29.98 "Hg1 mi
1:30 AM46 °FClear.3 mph100%29.98 "Hg10 mi
1:00 AM46 °FClear.3 mph100%29.98 "Hg10 mi
12:30 AM48 °FClear.6 mph94%29.98 "Hg10 mi
12:00 AM46 °FClear.6 mph100%29.98 "Hg10 mi
11:30 PM
Mon, Apr 27
45 °FClear.3 mph100%29.98 "Hg10 mi
11:00 PM45 °FFog.6 mph100%29.98 "Hg2 mi
10:30 PM46 °FClear.6 mph93%29.98 "Hg10 mi
10:00 PM45 °FClear.6 mph93%29.98 "Hg10 mi
9:30 PM45 °FClear.3 mph93%29.98 "Hg10 mi
9:00 PM45 °FClear.3 mph93%29.98 "Hg10 mi
8:30 PM46 °FSunny.3 mph93%29.98 "Hg10 mi
8:00 PM48 °FSunny.3 mph87%29.98 "Hg10 mi
7:30 PM50 °FSunny.6 mph82%29.95 "Hg10 mi
6:30 PM55 °FSunny.10 mph55%29.98 "Hg10 mi
6:00 PM55 °FSunny.10 mph51%29.98 "Hg10 mi
5:30 PM57 °FSunny.13 mph48%29.98 "Hg10 mi
5:00 PM57 °FSunny.13 mph39%30.01 "Hg10 mi
4:30 PM59 °FSunny.13 mph39%29.98 "Hg10 mi
4:00 PM59 °FSunny.13 mph36%30.01 "Hg10 mi
3:30 PM59 °FSunny.13 mph42%30.01 "Hg10 mi
3:00 PM61 °FSunny.13 mph39%30.01 "Hg10 mi
2:30 PM59 °FSunny.13 mph48%30.01 "Hg10 mi
2:00 PM61 °FSunny.13 mph55%30.01 "Hg10 mi
1:30 PM61 °FPassing clouds.13 mph55%30.01 "HgN/A
1:00 PM61 °FSunny.10 mph55%30.01 "Hg10 mi
12:30 PM61 °FPassing clouds.10 mph59%30.01 "HgN/A
12:00 PM61 °FSunny.13 mph55%30.01 "Hg10 mi
11:30 AM61 °FPassing clouds.13 mph55%30.01 "HgN/A
11:00 AM61 °FSunny.10 mph55%30.01 "Hg10 mi
10:30 AM61 °FPassing clouds.10 mph55%30.01 "HgN/A
10:00 AM59 °FSunny.10 mph63%30.01 "Hg10 mi
9:30 AM57 °FSunny.10 mph72%30.01 "Hg10 mi
9:00 AM55 °FSunny.10 mph77%30.01 "Hg10 mi
8:30 AM54 °FSunny.10 mph82%30.01 "Hg10 mi
8:00 AM54 °FSunny.8 mph94%30.01 "Hg10 mi
Weather by CustomWeather, © 2015

See weather overviewHow to use our weather pages